Location: Finkenbach
(49.5340°N, 8.9188°E)
Time: 21:32:20
(UTC+00:00)

Cosmos 1707 Rocket - Pass Details

Date: 17 June 2025
Orbit: 600 x 624 km, 82.5° (Epoch: 16 July)

Event Time Altitude Azimuth Distance (km) Brightness Sun altitude
Exits shadow 22:12:26 21° 198° (SSW) 1,364 4.8 -15.3°
Maximum altitude 22:15:15 74° 281° (W) 631 3.6 -15.4°
Drops below altitude 10° 22:19:34 10° 7° (N) 1,954 7.2 -15.6°
Sets 22:21:48 0° 9° (N) 2,862 8.2 -15.7°
